Location: Oshawa
(43.9000°N, 78.8670°W)
Time: 18:28:01
(UTC-04:00)

Cosmos 1821 Rocket - Pass Details

Date: 03 May 2018
Orbit: 944 x 1006 km, 82.9° (Epoch: 22 May)

Event Time Altitude Azimuth Distance (km) Brightness Sun altitude
Rises 20:52:37 0° 168° (SSE) 3,693 6.6 -6.0°
Reaches altitude 10° 20:55:13 10° 163° (SSE) 2,741 5.9 -6.4°
Maximum altitude 21:01:12 49° 91° (E) 1,251 4.3 -7.3°
Drops below altitude 10° 21:07:09 10° 19° (NNE) 2,717 6.5 -8.2°
Sets 21:09:43 0° 14° (NNE) 3,660 7.3 -8.6°
